North Vernon, Indiana, United States (47265)
Lat: 39.01N, Lon: 85.62W
Wx Zone: INZ072
Local Info
Past Weather Observations for Monday, October 20, 2014

NOTE: This archive is for the closest National Weather Service station to North Vernon. Information may differ from the station used for current weather conditions.

Click here for Long-term Archive

Time Weather Temperature Dewpoint Humidity Pressure Winds Precip Visibility
23:53
Mostly Cloudy
54°F / 12°C 46°F / 8°C 77% 29.95 in
(1014 mb)
NNW 5.8 mph
(NNW 9 kph)
- 10SM
22:53
Partly Cloudy
57°F / 14°C 46°F / 8°C 67% 29.95 in
(1014 mb)
N 13.8 mph
(N 22 kph)
- 10SM
21:53
Mostly Cloudy
57°F / 14°C 46°F / 8°C 67% 29.95 in
(1014 mb)
N 11.5 mph
(N 19 kph)
- 10SM
20:53
Mostly Cloudy
59°F / 15°C 46°F / 8°C 63% 29.92 in
(1013 mb)
NW 6.9 mph
(NW 11 kph)
- 10SM
19:53
Clear
61°F / 16°C 46°F / 8°C 59% 29.89 in
(1012 mb)
WNW 6.9 mph
(WNW 11 kph)
- 10SM
18:53
Mostly Cloudy
61°F / 16°C 45°F / 7°C 55% 29.89 in
(1012 mb)
SSW 5.8 mph
(SSW 9 kph)
- 10SM
17:53
Partly Cloudy
64°F / 18°C 46°F / 8°C 52% 29.86 in
(1011 mb)
W 9.2 mph
(W 15 kph)
- 10SM
16:53
Mostly Cloudy
68°F / 20°C 48°F / 9°C 49% 29.83 in
(1010 mb)
W 11.5 mph
(W 19 kph)
- 10SM
15:53
Partly Cloudy
66°F / 19°C 48°F / 9°C 52% 29.83 in
(1010 mb)
W 12.7 mph
(W 20 kph)
- 10SM
14:53
Partly Cloudy
66°F / 19°C 52°F / 11°C 60% 29.83 in
(1010 mb)
SSW 10.4 mph
(SSW 17 kph)
- 10SM
13:53
Partly Cloudy
64°F / 18°C 52°F / 11°C 64% 29.86 in
(1011 mb)
SSW 13.8 mph
(SSW 22 kph)
- 10SM
12:53
Overcast
61°F / 16°C 54°F / 12°C 77% 29.89 in
(1012 mb)
W 9.2 mph
(W 15 kph)
0.03 in
(0.76 mm)
10SM
10:53
Partly Cloudy
59°F / 15°C 46°F / 8°C 63% 29.92 in
(1013 mb)
SW 15 mph
(SW 24 kph)
- 10SM
09:53
Overcast
55°F / 13°C 46°F / 8°C 72% 29.95 in
(1014 mb)
SW 15 mph
(SW 24 kph)
- 10SM
08:53
Mostly Cloudy
54°F / 12°C 46°F / 8°C 77% 29.95 in
(1014 mb)
S 15 mph
(S 24 kph)
- 10SM
07:53
Mostly Cloudy
50°F / 10°C 45°F / 7°C 82% 29.95 in
(1014 mb)
S 12.7 mph
(S 20 kph)
- 10SM
06:53
Overcast
48°F / 9°C 45°F / 7°C 87% 29.98 in
(1015 mb)
S 10.4 mph
(S 17 kph)
0.00 in
(0.00 mm)
10SM
05:53
Overcast
48°F / 9°C 43°F / 6°C 82% 29.98 in
(1015 mb)
S 9.2 mph
(S 15 kph)
- 10SM
04:53
Overcast
48°F / 9°C 43°F / 6°C 82% 29.98 in
(1015 mb)
S 9.2 mph
(S 15 kph)
- 10SM
03:53
Partly Cloudy
48°F / 9°C 43°F / 6°C 82% 30.01 in
(1016 mb)
S 8.1 mph
(S 13 kph)
- 10SM
02:53
Mostly Cloudy
48°F / 9°C 43°F / 6°C 82% 30.01 in
(1016 mb)
S 8.1 mph
(S 13 kph)
- 10SM
01:53
Clear
46°F / 8°C 41°F / 5°C 82% 30.04 in
(1017 mb)
S 6.9 mph
(S 11 kph)
- 10SM
00:53
Clear
46°F / 8°C 41°F / 5°C 82% 30.04 in
(1017 mb)
S 5.8 mph
(S 9 kph)
- 10SM
Time Weather Temperature Dewpoint Humidity Pressure Winds Precip Visibility


Weather for websites

WeatherForYou.com, LLC is not responsible for any damages or problems caused by this service. Current weather conditions are obtained from the closest station including government and personal stations which may have varying degrees of accuracy. Weather forecasts are derived from the NOAA NDFD. Like all things, this site belongs to Jesus Christ... He just trusts me to maintain it. If you have any questions or comments email webmaster@weatherforyou.com

Copyright © 2014, WeatherForYou.com LLC. All rights reserved.